Location: Asheville, NC
(35.6000°N, 82.5500°W)
Time: 07:14:16
(UTC-04:00)

Envisat - Pass Details

Date: 15 February 2018
Orbit: 764 x 766 km, 98.2° (Epoch: 20 May)

Event Time Altitude Azimuth Distance (km) Brightness Sun altitude
Exits shadow 19:15:54 - 131° (SE) 2,508 5.3 -13.6°
Reaches altitude 10° 19:16:31 10° 128° (SE) 2,292 5.0 -13.7°
Maximum altitude 19:20:49 29° 69° (ENE) 1,380 3.8 -14.5°
Drops below altitude 10° 19:25:08 10° 11° (N) 2,304 5.3 -15.4°
Sets 19:27:41 0° 1° (N) 3,234 6.2 -15.9°
